Location: Bemmer
(51.5498°N, 5.6249°E)
Time: 12:58:37
(UTC+00:00)

SeaSat 1 - Pass Details

Date: 03 March 2021
Orbit: 744 x 747 km, 108.0° (Epoch: 16 April)

Event Time Altitude Azimuth Distance (km) Brightness Sun altitude
Rises 19:32:24 0° 29° (NNE) 3,203 5.6 -20.9°
Reaches altitude 10° 19:34:41 10° 26° (NNE) 2,275 4.8 -21.3°
Maximum altitude 19:39:35 65° 306° (NW) 825 2.8 -22.0°
Drops below altitude 10° 19:44:27 10° 225° (SW) 2,263 5.2 -22.7°
Sets 19:46:43 0° 223° (SW) 3,184 6.0 -23.0°
